Wind_Speed
10 10 11 11 13 13 11 11 10 8 7 6 7 8 8 9 11 11 11 13 14 14 14 15 16 16 14 14 14 14 14 14 15 14 13 13 13 13 13 12 11 11 13 13 13 14 15 17 19 20 19 18 16 14 14 13 13 14 14 15 15 15 16 16 17 18 18 18 18 19 20 20 20 20 20 20 20 20 21 21 22 22 24 24 25
10 10 10 10 12 14 14 13 11 11 10 9 10 10 9 10 11 10 10 12 14 13 12 13 15 16 15 14 14 15 15 14 14 14 13 13 13 13 13 12 11 11 12 14 14 15 17 18 20 20 19 18 17 16 15 15 16 16 16 17 17 17 18 18 18 19 19 20 20 20 20 20 20 19 20 20 20 20 21 21 22 22 24 24 26
11 10 11 12 13 15 16 15 14 14 13 13 12 12 12 12 11 10 10 12 12 11 11 13 14 15 15 15 16 17 16 16 15 14 14 13 13 13 13 12 12 12 13 15 15 17 18 19 19 19 19 18 18 17 17 17 17 17 18 18 18 18 19 19 19 19 20 20 20 20 20 21 20 20 20 20 20 21 21 21 20 21 21 22 24
13 12 13 13 13 15 17 17 15 15 15 15 14 14 14 14 12 11 10 11 12 11 12 14 15 14 13 14 16 17 17 17 17 16 15 14 14 15 15 14 13 13 14 15 16 17 18 19 19 20 19 19 19 19 19 19 18 18 19 20 20 20 20 20 20 20 20 20 20 21 21 21 21 21 21 21 21 21 20 20 20 19 19 20 22
16 14 13 11 12 14 16 16 14 14 15 16 16 16 15 14 12 11 11 12 12 12 13 15 16 14 11 11 13 16 16 17 17 17 17 16 15 15 16 16 16 15 15 16 17 18 18 19 19 20 20 20 20 20 20 19 19 19 20 20 21 21 21 21 21 20 20 20 21 21 22 22 22 22 22 22 21 21 21 20 20 20 20 20 21
18 15 11 9 11 13 14 13 13 13 15 16 16 15 14 13 12 11 11 12 11 11 12 13 15 14 11 9 10 13 15 16 17 17 18 18 16 15 15 16 17 17 16 16 17 18 18 18 18 19 20 21 20 20 19 19 19 19 20 20 21 21 22 22 22 21 22 22 22 22 23 23 23 23 23 23 23 22 22 21 22 22 22 22 22
18 12 8 7 8 11 12 12 12 11 12 13 14 13 13 12 12 11 12 12 11 10 10 11 13 14 13 11 9 10 12 15 17 17 18 19 18 17 15 15 16 17 17 17 18 18 18 18 18 19 19 19 19 18 18 18 18 19 19 20 21 21 22 23 23 23 23 23 23 23 24 24 24 24 24 24 24 24 23 22 22 23 23 23 23
18 10 6 7 7 10 13 13 12 11 11 11 12 12 13 13 13 13 13 13 11 10 10 11 13 15 15 14 13 13 14 15 16 18 18 19 19 19 18 16 16 17 17 17 18 18 18 18 18 19 19 18 17 17 17 17 18 18 19 19 20 21 22 22 23 23 24 24 24 24 24 24 24 25 25 25 25 24 24 24 24 24 24 24 25
21 14 10 9 9 11 13 13 12 10 10 10 11 13 13 14 14 14 15 14 14 13 13 14 15 17 18 19 19 20 18 15 14 17 19 18 18 18 19 19 17 17 17 17 17 17 17 17 17 18 17 17 16 16 16 16 17 18 18 19 20 20 21 22 22 23 23 23 23 24 24 24 25 25 25 25 25 25 25 25 25 25 25 25 25
27 21 14 10 10 11 12 13 12 11 11 11 12 12 13 14 14 15 16 17 17 18 17 17 17 19 20 21 21 21 19 15 14 16 19 20 19 18 18 18 18 17 17 16 15 14 14 15 15 15 16 15 15 15 16 16 17 18 18 19 19 20 20 21 21 22 22 22 23 23 23 24 24 25 25 25 25 25 25 25 26 26 25 25 25
31 25 17 12 11 12 13 13 13 13 13 13 13 14 15 16 16 17 18 19 20 20 20 20 20 21 21 21 20 20 20 19 16 16 19 22 22 20 17 16 17 16 16 16 14 12 12 13 13 14 14 14 15 15 16 16 17 17 18 18 18 19 19 19 20 20 20 21 22 22 22 23 24 24 24 24 24 24 24 25 26 26 25 25 24
32 25 17 13 12 13 14 14 14 14 14 14 15 16 18 17 17 17 19 20 21 21 22 23 22 23 23 22 21 21 22 23 23 22 24 25 24 22 19 17 16 15 15 15 14 12 11 12 13 13 13 13 13 14 15 15 16 16 16 17 17 17 18 18 18 19 19 20 20 21 21 21 22 22 22 22 22 22 23 24 24 25 25 24 23
30 23 18 16 15 16 16 16 16 15 14 14 15 18 18 17 17 17 18 20 22 23 24 24 25 25 25 25 25 25 26 27 27 27 27 25 23 21 19 17 17 15 14 13 13 12 11 12 12 12 12 11 11 12 13 14 14 15 15 15 16 16 16 17 17 18 18 19 19 19 19 19 20 20 20 20 20 20 21 22 22 23 23 22 22
28 22 20 19 17 18 19 20 19 16 14 14 16 18 18 18 18 18 17 18 21 24 25 27 27 26 26 27 28 28 29 27 24 24 24 22 21 19 17 16 16 15 13 12 12 11 11 11 11 11 11 11 11 11 11 12 12 13 13 14 14 15 15 16 16 17 17 18 18 18 18 18 18 18 19 18 18 18 19 20 20 20 20 20 20
29 24 22 21 19 19 21 21 19 16 15 15 16 18 18 18 18 18 18 19 23 26 28 28 26 25 25 25 25 26 27 24 19 20 21 20 19 18 16 16 16 15 14 13 12 11 10 10 10 10 10 10 10 10 10 10 11 11 12 12 13 13 14 14 15 15 16 16 17 17 17 16 16 17 17 17 17 17 17 17 17 17 17 18 18
28 26 24 23 22 21 22 22 20 18 17 17 18 18 17 17 17 17 18 21 24 25 26 26 24 23 21 19 18 19 18 17 17 19 20 19 18 18 17 17 16 15 15 14 13 12 11 10 9 8 8 8 8 9 9 9 9 9 10 10 11 11 12 12 13 13 14 15 15 15 15 15 15 16 17 17 17 16 16 16 15 15 15 15 15
26 25 25 25 23 22 22 22 21 20 19 19 19 18 17 16 16 16 18 21 23 23 23 23 22 21 19 17 17 16 15 15 16 18 18 18 19 19 19 18 16 15 15 15 15 14 12 11 9 8 8 8 8 8 8 8 8 8 8 8 9 10 10 11 12 12 13 14 14 14 14 14 14 15 15 16 16 16 16 15 15 15 14 14 14
26 24 23 23 22 21 22 23 22 21 20 19 18 18 17 16 16 16 18 22 23 20 18 18 18 19 18 16 16 16 15 15 16 16 17 18 20 21 21 20 18 16 16 15 15 15 14 13 10 9 8 8 8 8 9 9 9 9 8 8 8 9 10 10 11 12 12 13 14 14 14 14 14 14 14 15 15 16 16 16 15 15 14 14 14
26 23 21 21 22 22 22 23 23 21 19 18 18 18 18 18 17 16 18 21 23 19 15 14 15 17 15 13 14 15 15 15 16 16 17 18 20 21 22 22 20 17 17 16 16 16 16 15 13 11 10 10 10 10 10 10 10 10 10 9 9 9 10 11 11 12 13 13 14 14 15 15 15 14 14 14 15 15 15 16 16 16 15 15 15
24 23 22 22 22 22 23 22 21 20 18 18 18 19 20 19 18 18 19 21 23 20 16 14 15 15 14 13 15 15 15 15 16 17 17 17 20 22 24 23 21 19 17 17 17 16 16 16 16 15 13 12 12 11 11 11 11 11 11 10 10 10 10 11 12 13 14 14 15 15 16 16 16 16 16 15 15 15 16 16 17 17 17 16 16
24 23 23 23 23 22 20 19 19 18 17 18 20 21 21 20 20 19 20 21 22 21 18 17 16 17 17 17 18 18 16 15 16 16 17 17 19 21 21 19 20 19 19 19 19 18 18 17 17 17 15 14 14 13 13 13 13 13 12 12 12 12 12 13 13 14 14 15 15 16 17 17 17 17 17 17 17 17 16 17 17 17 18 18 18
22 23 23 23 21 19 18 17 17 18 19 21 21 22 22 22 21 21 21 20 20 20 19 18 19 19 19 17 17 17 16 16 16 16 16 17 17 16 16 17 20 21 21 21 21 19 19 18 18 17 16 15 15 15 15 15 15 15 15 14 14 15 15 15 16 16 16 17 17 18 19 19 19 19 19 19 18 18 17 17 18 18 18 19 19
21 23 26 26 21 19 18 18 18 20 22 24 25 23 22 22 22 22 22 21 20 20 20 19 19 19 17 16 16 16 16 16 16 16 16 17 16 16 17 19 22 23 24 23 22 21 20 20 19 19 19 17 16 16 16 16 16 17 18 18 17 17 17 18 19 19 20 20 20 20 20 21 22 22 22 22 21 21 21 20 20 19 19 19 19
21 21 23 25 22 21 21 22 23 25 26 28 28 27 24 23 23 23 23 23 22 22 21 21 20 19 18 18 19 18 17 17 18 18 18 18 18 18 17 18 22 24 24 23 22 21 20 19 19 19 20 20 19 18 18 18 18 19 20 20 20 20 20 20 21 22 22 23 23 23 22 23 23 24 24 24 24 24 24 24 23 22 22 21 20
23 22 21 21 21 22 24 25 27 28 28 29 29 28 27 26 24 25 25 26 25 25 24 24 23 22 20 20 21 20 20 21 21 20 19 19 19 20 19 19 20 20 20 21 22 22 21 20 20 20 20 21 21 20 19 20 21 22 22 22 22 22 22 22 23 24 25 26 26 25 25 24 24 24 25 25 25 26 25 25 25 24 24 23 22
25 24 23 22 22 23 24 25 26 27 28 29 30 30 30 28 27 27 28 28 28 28 27 27 26 25 23 22 22 23 23 23 22 21 21 21 21 21 20 21 21 22 23 24 23 23 23 24 25 25 25 25 25 24 23 23 24 24 24 24 24 24 24 24 25 26 29 30 31 29 27 26 26 25 26 26 26 27 27 27 27 26 26 25 25
24 24 24 25 25 25 26 27 28 29 30 31 31 32 32 31 29 28 29 30 30 29 29 29 29 28 26 25 25 25 24 24 23 22 23 23 22 21 21 23 25 26 26 26 25 26 26 26 27 27 27 27 28 27 28 28 28 28 27 27 26 26 25 25 26 28 30 32 33 31 30 29 28 27 27 27 27 28 28 28 29 28 28 28 28
26 27 27 28 28 29 30 30 30 30 31 32 33 33 32 31 31 30 30 30 30 30 30 31 31 29 28 27 27 27 27 25 24 23 23 24 24 24 25 25 26 27 26 26 27 28 26 25 26 27 26 26 26 27 28 29 30 31 30 30 29 29 29 27 26 26 28 30 31 32 31 31 31 30 29 28 28 29 29 30 30 30 30 30 30
31 32 32 32 33 33 33 33 33 33 33 34 35 35 35 34 34 34 34 34 34 34 34 34 34 32 31 30 31 30 29 28 26 25 26 26 25 26 27 26 26 27 27 26 26 26 26 25 25 26 26 26 27 28 28 29 29 29 30 30 31 32 32 31 28 27 26 27 28 30 32 32 32 32 32 31 31 32 32 33 33 33 33 33 33
36 37 37 37 36 36 35 35 36 36 37 38 39 39 39 39 40 40 40 39 39 39 40 40 40 39 38 36 34 33 32 31 30 28 28 28 26 26 27 27 26 28 29 29 30 30 30 30 30 30 31 32 33 32 31 31 31 30 30 31 32 33 34 34 33 32 31 30 30 31 33 33 33 34 35 35 36 37 37 37 36 36 36 36 36
40 40 40 40 40 40 39 39 39 39 40 41 42 42 42 42 43 43 43 43 44 44 44 44 43 42 41 40 38 37 36 36 34 32 31 30 28 28 30 29 29 30 31 31 32 32 32 32 33 34 36 37 36 33 32 33 33 33 33 33 34 34 35 36 36 35 36 35 34 36 37 37 37 38 38 38 38 39 39 39 38 37 38 38 38
43 43 43 43 44 44 43 43 42 42 42 44 44 44 44 44 44 44 45 46 46 46 45 45 43 42 42 42 41 40 39 38 37 36 34 32 31 32 33 32 31 32 33 33 33 33 33 33 34 34 36 36 33 32 32 33 34 35 36 36 37 37 38 39 38 38 38 39 39 40 42 41 41 42 42 43 43 43 42 42 40 40 41 42 42
46 46 46 46 46 46 45 44 44 44 44 45 45 45 45 45 45 45 46 46 46 45 45 44 43 43 43 44 43 42 41 40 40 39 38 37 35 34 34 34 33 34 35 35 34 33 32 32 33 34 36 35 33 32 33 34 35 36 37 38 39 39 39 40 41 41 42 42 42 44 44 45 45 46 46 46 47 47 47 47 46 46 48 50 51
50 49 49 50 49 49 48 47 46 46 46 46 46 45 45 45 45 44 44 44 44 45 45 46 45 46 46 46 45 44 43 42 41 41 41 40 39 38 37 36 36 36 36 36 35 35 34 35 37 38 37 37 36 36 36 36 37 37 37 38 38 39 39 39 40 42 42 43 44 45 46 47 48 49 49 49 49 50 50 51 50 50 51 53 55
51 51 51 50 49 50 50 48 47 46 47 47 46 44 44 44 44 44 44 45 46 47 48 49 50 50 49 47 46 45 44 43 42 42 41 41 40 40 39 39 39 38 38 37 37 38 38 39 40 40 40 40 40 40 40 40 39 39 39 39 39 39 39 39 40 40 41 42 44 45 46 47 48 49 49 49 50 52 52 52 52 51 51 53 54
51 51 51 49 48 48 47 44 42 41 43 44 44 42 41 41 41 42 42 44 46 47 47 47 47 45 44 43 43 43 42 42 42 42 42 42 42 42 42 41 40 40 39 39 40 41 42 42 43 43 43 43 44 44 44 43 42 41 41 40 40 40 41 41 41 41 41 42 43 44 45 45 46 47 47 48 50 52 52 52 52 51 51 52 54
52 52 52 52 52 52 51 48 47 46 46 47 47 42 38 38 39 39 39 40 42 42 42 42 42 42 42 42 43 43 43 44 44 44 45 45 44 44 44 43 42 41 41 41 42 43 44 44 45 45 45 45 46 47 47 46 44 43 43 42 42 42 42 42 43 43 43 43 43 44 44 45 45 46 47 48 49 50 51 52 52 52 52 53 54
55 56 56 56 56 56 55 55 54 53 51 51 49 45 41 41 41 41 40 40 40 41 42 42 43 44 44 44 45 45 45 46 46 46 45 45 45 45 44 44 43 42 42 43 44 45 46 46 46 46 46 46 47 48 48 47 45 45 44 44 44 44 43 43 43 43 43 44 44 45 45 45 46 47 48 49 50 51 52 53 53 53 54 54 55
58 58 58 58 58 57 57 57 57 56 54 51 50 49 50 51 50 47 44 42 40 40 41 42 42 41 41 41 42 43 43 42 43 43 44 45 46 46 46 46 45 45 45 47 48 48 48 48 47 47 47 47 48 48 47 47 46 46 46 46 45 45 44 44 44 44 44 45 45 45 46 46 47 48 49 50 51 52 53 53 53 54 54 55 55
58 59 59 59 59 58 58 57 57 56 55 53 51 52 54 56 57 55 53 50 48 45 44 44 44 44 43 43 44 44 45 45 45 45 45 45 46 48 49 49 49 50 51 51 50 49 48 48 47 47 47 48 48 48 48 48 48 47 47 47 47 46 46 46 45 45 45 45 45 45 46 46 46 47 48 49 49 50 51 51 52 53 54 54 54
58 58 58 58 58 58 58 57 57 56 56 55 54 54 55 57 58 59 58 58 57 55 52 51 51 50 48 48 47 47 48 50 51 50 50 50 51 51 53 54 55 55 54 53 51 49 48 48 48 48 48 48 48 48 48 48 48 48 47 47 47 46 46 45 45 45 45 45 44 45 45 46 46 46 46 46 47 47 48 49 50 51 52 53 53
59 59 58 58 58 58 58 58 57 57 57 57 56 56 56 57 58 59 59 60 60 60 60 60 60 59 59 58 57 57 56 56 57 58 56 56 56 56 56 56 57 56 55 53 53 52 51 50 50 49 48 48 48 47 47 46 46 46 46 45 45 45 45 44 44 44 44 44 44 45 46 46 46 45 44 44 45 46 47 48 48 50 50 51 52
59 59 60 60 59 59 59 59 59 58 58 58 58 58 58 59 59 59 60 60 61 62 63 64 63 63 64 64 63 63 62 61 63 65 63 61 60 58 57 56 56 56 56 56 56 55 53 52 50 49 48 47 47 46 45 44 44 44 44 43 43 43 42 42 42 43 43 44 45 45 46 45 44 44 44 44 45 45 45 46 46 47 48 49 50
59 60 61 62 62 62 62 62 61 61 61 62 62 62 62 62 63 63 63 63 63 63 64 65 64 63 64 63 62 61 60 60 63 65 63 62 61 59 58 58 58 57 58 57 57 55 53 51 50 49 48 47 46 45 44 44 43 43 43 42 42 42 42 42 42 42 43 44 45 45 45 44 44 44 44 45 45 45 44 44 45 45 45 46 47
60 61 62 63 64 64 65 65 64 64 65 65 65 65 65 65 66 66 66 66 66 65 65 66 66 65 64 64 64 64 63 62 62 61 60 59 59 58 57 57 57 57 56 56 55 54 52 51 50 49 48 47 46 45 45 44 44 44 44 43 43 43 42 42 42 42 43 44 45 44 43 43 43 43 44 44 44 44 44 43 43 43 44 45 46
61 62 63 64 65 66 66 67 67 67 67 67 67 68 67 67 67 68 68 68 68 68 68 67 67 66 65 65 64 64 64 64 63 61 58 57 55 53 52 53 53 54 54 53 53 52 51 49 48 47 47 47 45 45 45 45 45 45 45 44 44 43 43 43 43 43 44 44 43 42 42 42 43 43 43 43 43 43 42 43 43 44 44 45 46
60 61 62 63 64 65 65 66 66 66 67 68 69 68 68 67 67 68 68 68 69 69 69 69 68 68 67 66 65 64 63 62 63 62 61 60 58 56 55 55 54 53 52 52 52 51 49 48 47 47 47 46 44 44 45 46 46 46 45 44 44 43 43 43 43 43 42 42 41 41 41 41 41 41 41 41 41 42 43 43 44 45 45 46 47
58 59 59 60 60 61 62 62 62 63 64 65 65 66 66 65 65 66 66 67 67 67 67 68 68 68 68 68 67 66 65 63 62 61 60 60 60 59 58 57 56 55 54 53 52 51 49 48 48 48 47 45 43 44 45 45 44 43 43 43 43 43 42 41 41 41 40 40 40 39 39 39 39 39 40 41 42 42 43 44 45 45 46 46 46
58 59 59 60 60 60 60 60 60 61 62 63 63 62 63 63 63 64 65 65 65 65 65 65 65 65 66 66 66 66 66 65 64 62 60 59 58 59 58 58 57 56 55 53 52 50 49 49 48 48 46 43 42 43 44 44 42 40 39 40 41 41 40 39 39 39 39 39 39 38 38 38 39 39 40 41 42 42 43 43 43 43 43 43 43
59 60 60 61 61 61 61 61 60 61 62 62 62 62 62 63 63 64 65 65 64 64 63 63 62 62 62 62 63 63 63 63 63 62 60 58 56 56 56 56 56 56 55 53 51 50 49 48 48 46 43 41 41 42 43 43 42 41 40 40 40 40 39 39 38 38 38 38 38 38 38 39 39 40 40 41 41 41 40 39 38 38 38 38 39
58 59 59 59 60 60 61 60 61 62 62 62 62 62 62 63 64 65 66 66 66 65 64 63 63 62 61 61 61 60 60 60 60 60 59 57 54 52 52 53 54 54 53 52 50 49 48 47 45 43 40 39 40 41 42 42 42 41 41 41 40 40 40 39 38 38 38 38 38 38 39 39 39 39 38 38 37 35 33 32 32 33 35 37 39
Wind_Direction
309 310 306 283 257 248 249 254 259 258 251 242 239 241 242 240 240 241 244 251 253 252 256 264 269 272 274 277 278 275 271 266 261 259 258 258 258 258 261 264 265 266 261 255 249 240 230 225 224 223 223 223 223 223 227 228 229 230 232 234 236 234 233 235 241 247 249 248 247 246 247 248 247 246 246 246 247 250 252 254 255 255 254 252 248
311 312 314 302 273 256 253 255 256 253 246 239 241 246 246 243 242 242 244 249 249 248 255 267 275 280 284 287 287 284 282 277 271 267 264 262 262 260 260 262 262 261 259 257 251 243 235 229 226 225 224 223 223 225 228 230 231 231 233 236 236 236 236 235 237 241 246 247 247 247 247 249 248 247 247 248 247 246 248 252 255 256 256 254 247
310 309 306 301 284 267 260 257 254 252 248 246 247 247 245 244 244 241 239 240 240 244 253 265 275 282 288 291 291 290 290 289 285 281 275 270 268 266 262 258 254 252 249 250 249 244 240 236 232 230 229 227 227 228 229 230 231 232 236 239 239 239 239 239 239 240 244 247 248 248 248 248 247 247 248 250 249 246 246 250 253 252 253 253 247
308 309 303 299 286 270 263 260 257 253 249 249 247 244 243 243 243 242 239 236 235 243 255 263 267 272 283 288 290 292 293 293 292 290 284 276 270 268 265 259 252 246 244 245 247 246 243 240 237 235 234 233 232 232 232 232 233 235 237 241 243 243 244 244 243 244 245 247 250 251 251 250 249 249 249 249 249 246 245 246 247 246 247 249 246
304 311 310 300 275 261 263 263 260 254 248 246 244 242 242 243 245 247 247 244 241 245 257 263 259 259 272 286 291 295 295 294 293 291 288 282 272 265 263 261 254 247 242 240 243 244 244 241 239 238 236 236 236 237 238 239 239 239 240 242 243 244 246 247 247 247 248 248 250 252 253 253 252 252 252 252 251 249 247 245 242 240 242 245 244
299 310 314 302 271 258 262 263 258 250 244 244 244 244 245 249 255 256 257 259 257 258 264 264 254 249 258 274 286 294 298 299 296 292 289 285 277 267 261 259 255 250 243 238 238 241 244 245 243 240 237 237 237 239 241 242 242 240 240 240 241 242 244 246 247 247 248 248 248 250 252 253 254 254 255 255 255 254 253 250 247 243 242 244 244
295 308 317 320 290 261 256 255 252 248 245 246 247 251 256 263 268 268 270 275 273 267 262 256 246 241 244 251 264 284 299 303 300 294 288 284 280 272 264 259 255 250 243 238 236 237 240 244 245 243 240 239 240 240 241 242 242 241 241 241 242 243 244 246 247 248 248 249 248 249 251 252 254 255 256 257 258 258 258 258 256 253 250 248 247
290 298 302 332 309 257 244 244 246 246 246 247 250 254 261 268 273 274 275 277 271 259 251 245 240 238 240 244 255 274 288 296 298 294 287 281 276 272 266 261 257 251 243 237 235 235 237 240 243 244 244 243 243 244 245 246 247 247 247 247 247 247 248 249 250 250 251 251 251 251 252 253 254 255 256 258 259 260 261 261 260 258 256 254 251
285 286 285 314 306 258 238 233 234 238 242 250 256 260 264 269 273 271 268 266 258 251 249 247 242 242 245 249 258 270 276 281 288 288 285 280 274 269 264 260 258 255 248 240 234 233 234 237 241 245 247 248 248 249 250 251 252 253 253 252 252 251 251 251 252 253 253 254 254 254 255 255 255 256 257 258 259 260 260 261 261 260 260 259 257
281 284 283 296 291 258 232 222 227 237 243 250 256 260 264 265 264 262 258 255 252 253 257 256 252 250 251 255 263 270 270 269 278 286 286 283 279 274 268 262 258 257 255 248 239 234 234 236 241 247 252 254 255 255 254 254 255 255 255 255 255 255 255 254 254 255 256 257 257 256 256 256 256 257 257 258 258 258 258 259 261 261 260 259 259
277 280 281 283 272 251 238 235 239 245 246 247 247 250 254 255 256 257 258 260 261 265 268 268 266 266 266 267 270 275 274 267 268 281 290 291 286 282 280 272 263 259 259 254 244 236 235 238 241 245 252 256 257 257 256 256 256 255 255 255 255 256 256 256 256 256 257 257 257 257 256 256 257 257 258 258 258 257 257 258 259 260 260 259 259
272 275 275 270 256 246 248 249 248 247 246 248 251 252 253 256 261 264 267 272 276 280 281 278 274 273 275 275 273 277 280 275 269 275 289 294 287 283 286 284 273 264 261 256 246 237 234 238 240 242 245 250 254 256 256 256 255 255 255 254 254 254 254 254 254 255 254 254 255 256 256 256 257 258 259 259 259 258 258 259 260 262 262 262 262
267 269 266 262 254 245 246 252 254 252 250 253 258 261 263 268 272 272 272 276 278 281 282 279 273 271 273 274 273 275 279 279 277 278 285 289 284 282 287 288 279 267 263 259 248 238 234 236 239 241 243 246 251 255 257 257 257 256 256 255 255 255 254 255 255 255 255 255 256 256 257 257 257 258 258 258 258 258 258 260 261 263 264 263 263
261 262 260 261 256 243 245 255 260 260 258 257 260 264 269 275 277 278 278 278 279 278 276 274 272 272 276 276 276 277 276 275 276 278 281 282 279 282 288 290 283 272 267 263 251 238 233 234 237 240 243 246 250 256 260 262 263 263 262 260 259 259 259 258 258 258 258 259 258 258 258 258 257 257 258 257 257 257 257 259 261 262 263 262 261
256 255 255 258 253 246 252 259 263 265 264 260 260 264 269 274 276 278 279 280 282 279 274 271 271 272 275 276 277 280 275 268 268 275 278 279 281 285 288 289 286 276 269 266 256 241 231 229 231 236 241 245 249 254 260 265 269 270 269 266 264 263 262 262 262 262 262 262 261 260 259 257 256 255 255 255 255 256 256 257 258 259 260 261 260
249 248 248 249 247 248 254 259 263 266 266 265 267 268 269 271 272 274 276 278 279 276 270 269 274 277 277 276 277 281 274 261 264 274 277 277 281 285 287 288 287 278 271 267 262 251 237 228 227 229 234 239 244 249 255 260 264 270 274 275 274 272 271 271 270 269 268 267 265 263 260 258 255 253 252 253 253 254 255 255 255 255 255 257 258
241 241 243 243 246 249 254 258 263 265 266 269 271 272 271 269 270 273 277 280 281 280 277 276 281 283 280 276 275 276 270 261 264 272 273 272 276 281 283 284 283 279 275 272 268 261 250 240 233 232 233 234 237 241 245 248 252 259 268 277 283 283 282 282 280 279 277 275 273 271 268 265 261 258 255 255 255 255 256 256 256 255 254 254 254
243 243 242 241 246 251 255 260 263 265 267 268 268 270 271 270 271 273 275 279 283 285 283 281 283 283 281 280 275 271 269 269 270 270 269 268 271 277 280 277 276 277 277 274 271 267 262 255 247 242 241 240 240 239 238 239 240 244 251 260 269 275 279 281 281 282 281 280 279 277 276 273 270 266 262 260 260 259 260 260 260 260 260 258 257
248 249 249 250 251 253 256 260 262 262 263 263 264 268 271 272 274 275 272 274 279 282 279 278 285 290 291 288 282 277 278 280 276 271 271 270 270 274 278 276 275 277 277 274 271 269 266 262 256 249 245 245 246 245 243 241 239 239 241 248 257 264 270 274 275 276 277 278 279 279 279 279 276 274 271 267 265 264 264 265 265 265 264 262 261
251 255 258 260 259 258 258 259 259 259 259 261 265 268 272 274 275 276 274 272 277 283 285 287 295 299 296 291 288 286 285 284 279 273 271 273 274 271 270 273 276 278 276 271 268 266 265 265 261 255 250 249 250 252 252 252 249 245 244 245 252 258 263 268 271 272 273 274 275 276 276 278 278 277 275 272 269 267 266 267 268 268 269 268 266
257 262 264 263 262 260 257 255 254 255 257 261 265 268 271 274 273 274 274 275 279 285 290 296 302 303 300 297 296 293 287 282 279 274 269 276 283 274 266 274 281 279 274 268 264 263 262 262 262 260 258 256 256 257 258 260 260 257 256 256 256 258 259 262 266 268 271 273 275 275 274 273 273 273 272 271 269 267 266 266 267 268 270 272 273
264 267 268 266 264 259 255 252 252 253 255 258 262 268 273 276 275 275 276 277 281 285 290 297 301 303 301 298 297 296 290 283 277 275 272 274 279 274 271 280 283 278 273 266 262 261 261 260 258 256 257 259 260 262 262 263 263 261 261 264 266 267 267 268 269 269 270 272 274 276 276 275 272 271 271 271 270 270 269 267 266 266 267 269 272
272 275 271 263 257 254 252 252 255 257 258 258 260 268 278 281 282 282 281 280 281 282 286 290 294 298 297 295 296 297 296 291 281 276 274 273 274 275 276 278 278 278 274 265 259 259 260 259 256 253 254 257 258 260 261 261 260 259 260 263 268 272 275 276 277 276 275 275 274 273 273 273 274 273 273 272 272 273 272 270 269 268 267 266 267
278 282 273 259 253 254 256 259 264 267 266 264 263 268 277 283 284 286 285 283 282 281 281 283 287 291 291 292 295 296 297 296 287 280 278 276 275 278 278 278 277 276 273 266 259 258 258 257 258 259 259 259 259 259 260 259 258 258 259 262 267 272 276 278 280 281 281 280 277 274 271 269 270 272 272 272 272 272 272 272 271 271 270 269 269
278 282 278 269 266 266 266 268 272 272 271 270 267 268 273 278 281 284 286 284 283 282 281 282 284 286 288 289 293 294 295 294 288 281 280 277 276 278 279 278 275 270 272 272 266 262 260 258 261 264 260 259 261 260 259 260 259 258 258 261 266 271 275 278 282 285 286 283 279 276 272 268 265 265 266 266 267 268 269 269 269 270 270 270 271
275 276 276 273 271 269 270 272 275 274 273 271 269 267 269 272 275 280 284 285 285 283 283 283 285 287 288 288 289 289 289 290 285 278 277 279 280 280 279 277 273 271 277 281 278 273 268 264 266 264 259 259 262 263 264 263 260 257 257 259 262 266 271 277 282 286 289 286 280 275 273 269 265 261 260 260 261 262 263 264 265 266 267 267 267
271 271 271 271 270 271 272 275 277 277 276 274 273 271 270 269 272 278 283 284 284 283 283 283 284 286 287 287 287 287 286 287 284 279 279 280 279 280 281 279 278 277 278 280 279 277 274 272 270 264 260 261 264 267 271 270 265 261 258 258 260 266 272 277 281 285 287 285 279 273 271 271 267 262 259 258 259 260 260 262 262 263 263 264 264
269 269 269 269 271 273 274 275 276 276 275 275 276 277 275 272 274 278 280 281 281 281 282 284 284 284 285 286 287 287 286 286 284 280 279 278 279 283 283 280 280 280 278 275 273 271 270 270 265 260 260 264 266 270 275 276 274 270 267 267 268 271 275 277 280 282 281 279 275 271 271 272 270 266 263 262 262 263 263 263 263 263 263 262 262
270 269 269 270 271 272 273 274 274 273 272 272 274 276 275 273 274 276 277 277 277 278 279 280 280 280 282 285 287 288 287 286 283 280 278 279 283 285 280 277 279 280 277 275 270 266 267 267 260 255 257 264 269 272 273 275 276 275 273 274 275 276 276 276 278 280 278 274 271 271 272 272 270 268 269 269 269 269 268 267 266 265 265 264 263
271 271 271 272 272 272 272 273 273 272 271 271 273 274 274 274 275 276 277 276 275 276 277 277 275 275 276 278 282 284 285 285 283 280 279 282 284 280 273 272 276 276 275 273 268 265 268 269 263 258 261 269 276 276 274 274 274 272 272 272 273 274 275 276 276 277 277 275 272 270 271 270 269 269 270 271 272 272 272 271 269 268 267 266 266
269 271 272 273 273 273 273 273 272 271 271 271 273 273 274 274 275 276 276 277 277 277 277 276 274 274 273 275 277 279 281 283 282 279 279 280 279 275 272 272 272 270 269 268 265 265 269 269 269 268 269 273 277 278 277 277 276 273 272 272 272 273 273 274 274 272 273 274 272 270 270 270 270 269 269 269 270 271 271 271 270 269 268 268 269
268 269 271 272 273 274 275 274 273 272 271 271 272 272 272 272 273 274 275 276 278 277 276 275 275 276 276 277 278 279 279 280 279 277 277 277 275 274 274 274 270 266 264 263 263 265 268 269 270 270 270 274 277 277 277 276 275 274 273 272 272 272 272 273 273 272 271 272 271 270 271 271 270 269 268 268 269 269 269 268 267 267 268 269 270
268 269 270 270 271 272 273 273 273 272 271 271 271 271 271 271 271 273 274 274 274 274 274 274 275 276 278 279 279 279 279 279 278 276 276 277 277 276 275 274 271 268 266 265 265 265 266 268 269 270 274 279 282 280 277 275 273 273 272 271 271 270 270 271 271 271 271 271 270 270 271 271 270 270 269 269 269 269 268 267 265 265 266 268 269
270 271 271 271 271 271 271 272 272 272 272 270 269 268 269 269 269 269 270 270 270 270 270 271 272 275 277 277 276 276 277 277 277 277 277 277 278 276 274 273 272 270 269 268 268 268 269 271 273 276 280 283 283 282 281 278 275 273 271 271 270 270 269 268 268 268 268 268 268 268 269 269 270 271 272 272 272 271 270 270 269 267 267 268 269
271 272 272 272 272 272 272 274 275 276 275 272 269 268 269 268 266 264 263 263 263 265 266 268 271 273 274 273 272 271 272 273 274 275 276 276 276 276 273 272 271 270 270 271 272 273 274 276 278 279 281 282 284 284 284 282 279 276 274 272 271 270 269 269 268 267 267 267 267 267 267 268 269 270 272 273 273 273 273 274 274 273 272 271 271
270 270 270 271 271 271 271 270 270 272 273 272 270 270 271 270 265 262 260 260 260 262 265 268 270 270 270 270 269 269 269 270 271 272 272 272 273 273 272 271 269 268 269 271 274 276 278 279 280 280 281 283 284 285 285 284 282 280 277 275 274 273 272 271 270 270 269 268 268 268 268 268 269 270 270 271 272 273 274 274 274 274 273 271 271
269 268 269 269 269 269 269 266 263 262 264 267 268 268 268 266 263 262 263 262 262 263 264 266 266 267 269 269 269 269 269 269 269 269 269 269 269 269 269 268 266 266 268 271 273 276 278 279 279 280 280 281 282 283 284 283 281 279 278 276 275 274 273 272 272 271 271 271 270 270 270 271 271 271 272 272 271 272 273 273 273 272 272 271 271
266 267 268 268 268 268 268 267 265 263 262 263 263 261 258 257 258 262 264 265 267 267 266 266 267 269 270 269 267 266 266 265 265 265 266 266 265 264 264 263 262 263 266 269 272 274 275 276 276 277 278 279 280 281 281 280 279 278 276 276 275 275 274 274 274 273 273 273 273 273 273 273 273 273 273 272 272 272 273 273 273 273 273 273 272
263 264 265 266 266 267 266 266 266 265 264 261 259 256 254 255 257 259 261 263 265 265 265 263 262 262 264 265 265 265 264 262 262 262 263 263 263 263 262 261 260 262 265 269 271 272 272 272 273 274 275 277 278 279 279 278 277 276 275 275 275 276 276 276 276 276 276 276 276 275 275 274 274 273 273 273 273 273 274 274 274 274 274 273 273
262 263 264 265 265 265 266 265 265 265 264 262 258 255 253 255 256 258 259 259 258 256 256 255 254 254 255 256 259 262 263 262 261 260 261 262 263 263 263 262 262 264 268 271 273 273 272 271 271 273 275 276 276 276 276 276 276 275 275 276 276 277 278 278 278 278 278 277 277 276 276 276 275 275 274 274 274 275 275 275 274 274 274 274 274
262 262 263 263 264 264 264 264 264 264 263 262 260 257 254 254 254 255 257 257 255 253 253 253 253 253 253 253 255 258 261 262 262 262 262 262 263 263 264 265 266 268 271 273 273 274 273 272 273 275 276 276 275 275 275 275 274 274 275 276 277 277 278 277 277 277 277 277 277 277 277 277 277 277 277 277 277 276 275 274 274 274 274 274 273
264 263 262 262 262 262 263 263 263 262 262 261 260 259 257 256 255 255 255 256 255 254 254 255 255 256 257 257 258 260 261 263 263 264 264 264 265 266 266 267 268 270 272 273 273 274 274 274 275 276 277 276 276 276 276 275 274 274 274 275 275 275 275 275 276 276 277 277 277 278 278 278 279 280 280 280 279 278 277 276 276 276 275 275 274
264 264 264 263 262 261 261 261 261 260 260 260 259 258 258 258 257 257 256 256 256 256 256 256 257 258 260 261 262 263 263 262 262 263 264 265 266 267 267 267 269 270 272 273 273 274 274 274 275 277 277 277 277 277 277 276 275 274 274 274 273 273 274 274 275 275 276 277 277 278 279 280 281 282 281 280 279 280 280 280 280 279 279 278 277
264 264 264 264 263 263 262 261 260 260 259 259 259 258 258 259 259 259 258 258 257 257 257 257 257 258 259 260 261 262 262 262 263 264 265 264 264 265 266 267 269 270 271 272 272 273 273 273 274 275 276 276 276 276 276 276 276 275 274 273 273 273 273 274 274 275 276 276 277 278 280 282 282 282 281 280 280 281 281 281 281 281 281 281 280
262 262 263 264 264 264 264 263 263 263 262 261 260 259 259 259 259 259 259 259 258 258 258 258 258 258 259 260 260 261 261 262 262 264 264 264 264 264 264 265 267 268 269 269 270 271 272 272 273 273 273 273 274 275 276 276 276 275 274 273 273 273 273 274 274 275 276 277 279 281 282 283 282 281 281 280 280 280 281 281 281 281 281 281 281
262 262 262 262 263 263 264 264 265 265 265 264 263 262 261 260 260 259 259 259 259 258 258 258 258 258 258 259 260 260 261 261 261 262 261 262 262 262 262 263 264 265 266 267 268 268 269 270 270 270 270 271 273 274 275 275 275 274 273 272 272 272 272 273 274 275 277 279 281 282 282 281 281 281 281 281 281 282 282 282 282 282 282 282 282
264 263 263 262 262 262 262 263 263 264 265 265 265 265 264 263 262 261 260 260 259 259 258 258 258 257 257 257 257 257 258 259 260 261 261 261 261 261 261 262 263 263 263 264 264 265 266 266 266 267 268 270 271 272 272 272 273 272 272 272 271 271 272 273 275 276 278 279 279 279 279 279 280 280 281 282 282 283 283 283 283 283 284 284 284
267 266 265 264 264 263 263 262 262 262 262 263 263 264 264 264 263 262 262 261 260 259 259 258 258 258 258 257 257 256 255 255 256 258 259 261 261 261 261 261 262 262 262 262 263 264 264 264 264 265 266 267 268 269 270 271 271 271 271 270 270 271 273 274 276 277 277 277 277 278 278 279 280 281 282 282 283 283 284 285 285 286 286 287 287
270 269 268 267 266 264 263 262 261 261 260 260 260 261 261 261 262 261 261 261 260 259 259 259 258 258 259 259 258 258 257 256 255 254 254 255 257 258 259 260 260 261 261 262 262 263 263 263 263 264 264 265 265 266 267 268 269 269 270 271 271 272 273 274 275 276 276 277 278 279 280 280 281 282 283 284 285 286 286 287 288 288 289 289 289
272 271 270 269 268 266 265 263 262 261 260 259 259 258 258 259 259 259 259 259 259 259 258 258 258 258 258 258 259 259 258 258 258 256 254 252 252 254 256 258 259 259 260 261 261 261 261 262 262 263 263 263 263 264 264 264 265 266 269 271 272 273 274 274 274 274 275 276 278 279 279 280 282 283 284 285 287 288 288 289 289 289 289 288 288
274 273 272 271 270 269 268 266 265 263 261 260 259 258 257 257 257 257 257 257 257 257 257 257 257 257 257 257 257 257 258 258 259 259 258 256 253 252 254 255 257 258 259 260 260 260 260 261 261 262 262 262 262 262 262 263 264 266 267 269 270 272 273 274 274 275 275 276 277 279 280 281 283 285 286 287 288 288 288 289 290 290 291 291 290
Height
5771 5771 5771 5771 5772 5772 5772 5772 5772 5772 5772 5772 5773 5775 5776 5776 5777 5778 5778 5778 5778 5778 5778 5778 5777 5778 5778 5778 5778 5778 5778 5778 5778 5778 5777 5777 5777 5776 5776 5776 5777 5777 5777 5776 5776 5777 5778 5778 5777 5777 5777 5778 5779 5779 5780 5780 5781 5781 5782 5783 5783 5783 5784 5784 5785 5785 5785 5785 5785 5785 5785 5785 5786 5787 5787 5787 5787 5787 5787 5787 5787 5787 5787 5787 5787
5769 5769 5770 5770 5771 5771 5771 5771 5771 5771 5771 5772 5773 5774 5774 5775 5776 5777 5777 5777 5777 5777 5777 5776 5776 5776 5776 5776 5776 5776 5776 5776 5776 5776 5775 5775 5775 5774 5774 5775 5775 5775 5775 5775 5776 5777 5777 5777 5776 5775 5775 5776 5777 5777 5778 5778 5779 5779 5780 5781 5781 5782 5782 5783 5783 5784 5784 5783 5783 5783 5783 5783 5784 5784 5784 5784 5785 5785 5785 5785 5784 5784 5783 5783 5784
5768 5768 5768 5769 5769 5770 5769 5769 5769 5770 5770 5771 5772 5772 5773 5774 5774 5775 5775 5775 5775 5775 5775 5775 5774 5773 5773 5773 5773 5773 5774 5774 5774 5774 5774 5773 5773 5773 5773 5773 5774 5774 5774 5775 5775 5776 5776 5776 5775 5775 5774 5774 5775 5775 5776 5776 5777 5778 5778 5779 5780 5780 5780 5781 5781 5782 5782 5781 5781 5781 5781 5781 5781 5781 5782 5782 5782 5782 5782 5782 5782 5781 5781 5781 5781
5766 5767 5766 5767 5767 5767 5767 5767 5768 5768 5769 5769 5770 5771 5771 5772 5773 5773 5773 5774 5774 5774 5774 5773 5773 5772 5771 5772 5771 5771 5772 5772 5771 5772 5772 5772 5771 5771 5771 5771 5772 5773 5773 5774 5774 5774 5774 5774 5774 5774 5773 5773 5773 5773 5773 5774 5775 5776 5776 5777 5778 5778 5778 5779 5779 5780 5780 5779 5779 5779 5779 5779 5779 5779 5779 5779 5779 5779 5780 5780 5780 5779 5779 5779 5779
5765 5765 5765 5765 5765 5765 5765 5765 5766 5767 5767 5768 5768 5769 5770 5770 5771 5771 5771 5772 5772 5772 5772 5771 5771 5770 5770 5770 5770 5770 5770 5770 5770 5770 5770 5770 5770 5770 5770 5770 5770 5771 5772 5772 5772 5772 5772 5772 5772 5772 5772 5771 5771 5771 5771 5772 5773 5774 5774 5775 5776 5776 5776 5776 5777 5777 5777 5777 5777 5777 5777 5777 5777 5777 5776 5776 5777 5776 5777 5777 5777 5777 5777 5777 5777
5763 5763 5763 5764 5764 5764 5764 5764 5764 5765 5765 5766 5767 5768 5768 5769 5769 5769 5769 5769 5770 5770 5770 5769 5768 5769 5769 5769 5768 5768 5769 5769 5769 5769 5769 5769 5769 5769 5769 5769 5769 5769 5770 5770 5770 5770 5769 5770 5770 5771 5770 5770 5769 5769 5769 5770 5771 5772 5772 5773 5773 5773 5773 5774 5774 5774 5774 5775 5775 5775 5775 5774 5774 5774 5774 5774 5774 5773 5773 5774 5774 5774 5775 5775 5774
5761 5762 5762 5763 5763 5763 5762 5762 5762 5763 5764 5764 5765 5765 5766 5766 5767 5767 5767 5767 5768 5768 5767 5766 5766 5767 5767 5767 5767 5767 5767 5767 5767 5768 5768 5768 5768 5768 5768 5768 5767 5767 5767 5767 5768 5768 5768 5768 5768 5768 5768 5768 5767 5767 5767 5767 5768 5769 5769 5770 5770 5771 5771 5771 5772 5772 5772 5772 5772 5772 5772 5772 5772 5771 5771 5771 5770 5770 5770 5770 5771 5771 5772 5772 5772
5760 5761 5761 5761 5762 5762 5761 5760 5761 5761 5762 5762 5762 5763 5763 5764 5764 5764 5764 5764 5764 5765 5764 5764 5764 5764 5765 5765 5765 5766 5766 5766 5766 5767 5767 5767 5767 5766 5766 5766 5765 5765 5765 5765 5765 5766 5766 5766 5766 5766 5765 5765 5765 5764 5765 5765 5765 5766 5767 5767 5768 5768 5768 5769 5769 5769 5769 5769 5769 5769 5769 5769 5769 5768 5768 5768 5768 5767 5767 5767 5768 5768 5769 5769 5769
5758 5760 5760 5760 5760 5760 5759 5759 5759 5760 5760 5760 5760 5760 5761 5761 5762 5761 5761 5761 5761 5761 5761 5761 5761 5762 5762 5763 5763 5764 5764 5764 5765 5765 5765 5766 5766 5765 5764 5764 5763 5763 5763 5763 5763 5763 5764 5764 5764 5764 5763 5763 5762 5762 5762 5763 5763 5764 5764 5765 5765 5766 5766 5766 5766 5766 5766 5766 5767 5766 5766 5766 5766 5765 5765 5765 5765 5765 5765 5764 5764 5765 5765 5765 5765
5756 5757 5758 5758 5758 5759 5758 5758 5758 5758 5759 5759 5759 5759 5759 5759 5759 5758 5758 5758 5757 5757 5758 5759 5759 5760 5760 5761 5761 5761 5761 5761 5762 5762 5762 5763 5764 5763 5763 5762 5761 5760 5760 5760 5760 5760 5761 5761 5762 5762 5761 5761 5760 5760 5761 5761 5761 5762 5762 5763 5763 5764 5764 5764 5764 5764 5764 5764 5764 5764 5763 5763 5762 5762 5762 5762 5762 5762 5762 5762 5761 5761 5761 5762 5762
5753 5754 5755 5755 5756 5757 5757 5757 5757 5757 5757 5757 5757 5757 5757 5756 5756 5756 5756 5756 5757 5757 5758 5758 5759 5759 5759 5759 5759 5759 5758 5758 5758 5759 5759 5760 5760 5761 5761 5760 5759 5758 5758 5758 5757 5757 5758 5758 5759 5760 5760 5759 5759 5759 5759 5759 5759 5760 5760 5761 5761 5761 5762 5762 5762 5762 5761 5761 5761 5761 5760 5760 5760 5759 5759 5759 5759 5759 5759 5759 5758 5758 5758 5759 5759
5751 5751 5752 5752 5753 5754 5754 5755 5755 5755 5755 5755 5755 5754 5753 5754 5755 5755 5756 5756 5757 5757 5757 5757 5757 5757 5757 5757 5757 5757 5756 5755 5755 5755 5756 5757 5757 5758 5758 5757 5757 5756 5756 5755 5755 5755 5755 5756 5757 5757 5757 5757 5757 5757 5757 5757 5757 5758 5758 5758 5759 5759 5759 5759 5759 5759 5759 5758 5758 5758 5757 5757 5757 5757 5756 5756 5756 5756 5756 5756 5756 5756 5756 5756 5756
5748 5749 5749 5749 5750 5751 5752 5752 5752 5753 5753 5753 5752 5751 5751 5752 5753 5753 5754 5754 5753 5753 5753 5753 5752 5752 5753 5753 5753 5753 5753 5753 5753 5753 5753 5754 5754 5755 5755 5755 5755 5754 5754 5754 5753 5753 5753 5754 5754 5755 5755 5755 5755 5755 5755 5756 5756 5756 5756 5756 5756 5756 5756 5756 5756 5756 5756 5756 5755 5755 5755 5755 5755 5754 5754 5754 5754 5754 5754 5753 5753 5753 5753 5753 5754
5745 5746 5746 5746 5747 5748 5749 5749 5750 5750 5751 5751 5750 5748 5748 5749 5749 5750 5751 5750 5750 5749 5748 5747 5746 5747 5748 5749 5749 5749 5749 5750 5751 5750 5750 5751 5752 5752 5753 5753 5753 5752 5752 5752 5751 5751 5751 5752 5752 5753 5753 5753 5753 5753 5753 5754 5754 5754 5754 5754 5754 5754 5754 5754 5754 5754 5754 5753 5753 5753 5753 5753 5753 5752 5752 5752 5752 5751 5751 5751 5751 5751 5751 5751 5752
5741 5742 5743 5743 5745 5745 5745 5746 5746 5747 5747 5748 5747 5746 5747 5747 5747 5747 5748 5748 5746 5744 5743 5743 5743 5744 5745 5745 5746 5745 5745 5746 5748 5747 5748 5748 5749 5749 5750 5750 5750 5750 5750 5750 5749 5749 5749 5749 5750 5750 5751 5751 5751 5751 5751 5752 5752 5752 5752 5752 5752 5752 5752 5752 5752 5752 5752 5752 5751 5751 5751 5751 5751 5750 5750 5750 5750 5750 5749 5749 5749 5749 5749 5749 5749
5736 5737 5739 5740 5741 5742 5742 5743 5743 5744 5744 5744 5744 5744 5744 5745 5745 5745 5746 5745 5743 5741 5741 5742 5742 5742 5742 5743 5743 5743 5742 5744 5745 5745 5745 5746 5746 5746 5746 5747 5747 5747 5748 5748 5748 5747 5747 5748 5748 5748 5749 5749 5749 5749 5749 5750 5750 5750 5751 5751 5751 5751 5751 5751 5751 5750 5750 5750 5750 5750 5750 5749 5749 5749 5749 5749 5748 5748 5748 5748 5748 5748 5747 5747 5747
5733 5732 5734 5736 5737 5738 5739 5739 5740 5740 5741 5741 5741 5740 5741 5742 5742 5743 5742 5741 5741 5741 5741 5741 5741 5740 5740 5740 5741 5741 5741 5742 5742 5743 5743 5743 5743 5743 5743 5744 5744 5745 5745 5746 5746 5746 5746 5746 5746 5746 5747 5747 5747 5748 5748 5748 5748 5749 5749 5749 5750 5750 5750 5750 5750 5749 5749 5749 5749 5749 5749 5748 5748 5748 5748 5748 5748 5747 5747 5747 5746 5746 5746 5746 5746
5732 5731 5731 5733 5734 5735 5735 5736 5736 5737 5737 5738 5737 5737 5737 5738 5739 5740 5740 5739 5740 5740 5739 5739 5739 5738 5737 5737 5738 5739 5740 5740 5740 5740 5741 5741 5740 5740 5740 5741 5741 5742 5742 5743 5744 5744 5744 5744 5744 5744 5744 5745 5745 5746 5746 5746 5747 5747 5747 5748 5748 5748 5749 5749 5749 5748 5748 5748 5748 5748 5748 5748 5748 5747 5747 5747 5747 5747 5746 5746 5745 5745 5745 5745 5745
5729 5729 5729 5730 5731 5732 5732 5733 5734 5734 5734 5734 5734 5734 5734 5735 5737 5738 5738 5737 5736 5736 5736 5737 5736 5736 5736 5736 5737 5737 5737 5737 5737 5738 5738 5738 5738 5738 5738 5738 5739 5739 5740 5740 5741 5741 5742 5742 5742 5742 5742 5742 5743 5743 5744 5744 5745 5745 5745 5746 5746 5746 5747 5747 5747 5747 5747 5747 5747 5747 5747 5747 5747 5747 5747 5746 5746 5746 5745 5745 5744 5744 5744 5744 5744
5725 5726 5726 5727 5728 5729 5730 5730 5731 5731 5731 5731 5731 5731 5731 5733 5734 5734 5734 5734 5732 5732 5734 5734 5734 5733 5734 5734 5734 5734 5734 5734 5735 5736 5736 5736 5736 5736 5736 5736 5737 5737 5737 5738 5738 5739 5739 5739 5739 5739 5739 5740 5740 5741 5742 5742 5743 5743 5743 5744 5744 5744 5744 5745 5745 5745 5745 5745 5745 5746 5746 5745 5745 5745 5745 5745 5745 5745 5744 5744 5743 5743 5742 5742 5742
5722 5723 5724 5725 5726 5726 5727 5727 5727 5728 5728 5729 5729 5729 5729 5730 5731 5731 5731 5731 5730 5730 5731 5731 5731 5731 5731 5731 5732 5731 5731 5732 5732 5733 5734 5734 5734 5733 5733 5734 5735 5735 5735 5735 5735 5736 5737 5737 5737 5737 5737 5737 5738 5739 5740 5740 5741 5741 5741 5742 5742 5742 5742 5742 5743 5743 5744 5744 5744 5744 5744 5744 5744 5744 5743 5743 5743 5743 5743 5742 5742 5741 5741 5740 5740
5720 5721 5721 5722 5723 5724 5725 5725 5725 5726 5727 5727 5727 5727 5727 5728 5728 5728 5728 5728 5728 5728 5727 5728 5728 5728 5729 5729 5729 5729 5729 5729 5730 5730 5731 5731 5732 5731 5731 5732 5732 5733 5732 5732 5732 5733 5733 5734 5734 5734 5734 5735 5736 5736 5737 5738 5738 5739 5739 5739 5739 5739 5740 5740 5741 5741 5742 5742 5742 5742 5742 5742 5742 5742 5741 5741 5741 5741 5741 5740 5740 5739 5739 5738 5738
5717 5718 5718 5718 5719 5720 5722 5723 5723 5724 5725 5725 5725 5725 5725 5725 5724 5724 5724 5725 5725 5724 5724 5725 5725 5725 5726 5726 5726 5726 5727 5727 5728 5728 5728 5728 5729 5730 5730 5731 5730 5730 5729 5729 5729 5730 5731 5731 5731 5732 5732 5732 5733 5733 5734 5734 5735 5736 5736 5736 5737 5737 5737 5738 5738 5738 5739 5739 5740 5740 5740 5740 5739 5739 5739 5739 5739 5738 5738 5738 5738 5737 5737 5736 5736
5715 5715 5715 5715 5716 5717 5718 5720 5721 5721 5722 5722 5722 5722 5722 5722 5722 5721 5721 5721 5722 5722 5722 5722 5722 5722 5723 5723 5723 5724 5725 5726 5726 5726 5726 5726 5726 5727 5728 5729 5728 5727 5726 5726 5727 5728 5728 5729 5729 5729 5729 5729 5730 5730 5731 5732 5732 5733 5733 5734 5734 5734 5734 5735 5735 5735 5736 5736 5737 5737 5737 5737 5737 5737 5736 5736 5736 5736 5736 5735 5735 5735 5735 5734 5734
5712 5712 5713 5713 5714 5715 5715 5716 5717 5718 5718 5718 5718 5719 5719 5720 5719 5719 5718 5718 5719 5719 5719 5719 5719 5719 5720 5720 5721 5722 5722 5723 5723 5723 5723 5724 5724 5725 5725 5726 5726 5726 5725 5724 5724 5726 5726 5727 5727 5727 5727 5727 5727 5728 5728 5729 5729 5730 5730 5731 5731 5731 5731 5731 5732 5732 5733 5733 5733 5733 5733 5733 5734 5734 5734 5733 5733 5733 5733 5733 5733 5733 5732 5732 5732
5709 5709 5710 5711 5711 5712 5713 5713 5713 5713 5714 5714 5714 5714 5715 5716 5716 5716 5715 5715 5716 5716 5716 5715 5715 5716 5716 5717 5718 5719 5719 5719 5720 5720 5720 5721 5721 5721 5722 5722 5723 5724 5723 5722 5722 5723 5723 5724 5724 5725 5725 5725 5724 5725 5725 5726 5726 5727 5727 5728 5728 5728 5729 5729 5729 5729 5729 5729 5729 5729 5729 5729 5729 5730 5730 5730 5730 5730 5730 5730 5730 5730 5730 5729 5729
5706 5706 5707 5708 5708 5709 5710 5710 5710 5710 5710 5710 5710 5710 5710 5711 5712 5712 5712 5712 5712 5712 5712 5712 5712 5712 5713 5713 5714 5714 5715 5716 5716 5716 5717 5717 5718 5718 5719 5719 5719 5720 5720 5720 5720 5721 5721 5721 5721 5721 5722 5722 5722 5722 5722 5722 5722 5723 5724 5725 5725 5725 5726 5726 5725 5725 5725 5725 5725 5725 5725 5725 5725 5725 5726 5726 5726 5726 5727 5727 5726 5726 5726 5726 5725
5702 5702 5703 5704 5704 5705 5706 5706 5706 5706 5706 5706 5706 5706 5706 5707 5707 5708 5708 5708 5709 5708 5708 5708 5708 5709 5709 5709 5710 5710 5711 5711 5712 5713 5714 5715 5716 5716 5715 5715 5715 5715 5715 5716 5717 5717 5717 5718 5718 5718 5719 5719 5719 5719 5719 5718 5718 5719 5720 5721 5721 5721 5722 5722 5722 5721 5721 5720 5721 5721 5721 5721 5721 5721 5721 5722 5722 5722 5723 5723 5723 5723 5722 5722 5721
5698 5697 5698 5699 5699 5700 5700 5701 5701 5701 5701 5701 5701 5701 5702 5702 5703 5703 5704 5704 5704 5704 5704 5705 5705 5705 5706 5706 5706 5706 5707 5707 5708 5710 5710 5711 5713 5713 5711 5712 5712 5711 5711 5712 5712 5712 5713 5714 5715 5715 5715 5716 5716 5715 5715 5715 5715 5716 5717 5717 5717 5717 5717 5717 5717 5717 5717 5717 5717 5717 5717 5717 5717 5717 5717 5717 5718 5718 5718 5718 5718 5718 5718 5718 5717
5693 5693 5693 5693 5694 5695 5695 5695 5695 5695 5696 5696 5696 5696 5697 5697 5698 5698 5699 5699 5700 5700 5700 5701 5701 5702 5702 5702 5701 5701 5702 5703 5704 5705 5706 5707 5709 5708 5708 5709 5710 5709 5707 5707 5708 5708 5709 5710 5711 5711 5711 5712 5712 5711 5711 5711 5712 5712 5713 5713 5713 5713 5713 5713 5713 5713 5713 5713 5713 5713 5712 5712 5712 5713 5713 5713 5713 5713 5714 5714 5713 5713 5713 5713 5712
5689 5689 5688 5688 5688 5688 5689 5690 5690 5690 5690 5690 5690 5690 5691 5691 5691 5692 5692 5693 5693 5694 5694 5695 5695 5696 5697 5697 5696 5697 5697 5698 5699 5700 5701 5703 5704 5704 5703 5705 5707 5707 5705 5702 5702 5704 5705 5706 5706 5706 5707 5707 5707 5706 5706 5707 5707 5708 5708 5708 5708 5708 5708 5709 5709 5709 5708 5708 5708 5708 5708 5708 5708 5708 5708 5708 5708 5708 5708 5709 5709 5708 5708 5707 5707
5683 5684 5684 5683 5683 5682 5683 5684 5685 5685 5685 5684 5684 5684 5684 5684 5684 5684 5685 5686 5686 5686 5686 5687 5688 5688 5689 5690 5690 5691 5691 5692 5693 5694 5695 5697 5698 5698 5699 5699 5701 5702 5700 5697 5697 5700 5701 5700 5701 5701 5702 5702 5701 5701 5702 5702 5702 5703 5703 5703 5703 5703 5703 5703 5703 5703 5703 5703 5702 5702 5702 5702 5702 5702 5702 5702 5702 5702 5703 5703 5703 5703 5702 5702 5702
5677 5678 5678 5677 5677 5677 5677 5678 5679 5679 5679 5678 5678 5678 5678 5678 5678 5678 5678 5679 5679 5679 5680 5680 5680 5681 5681 5682 5683 5684 5685 5686 5687 5688 5689 5690 5692 5692 5693 5693 5694 5695 5693 5692 5693 5694 5695 5695 5696 5696 5696 5695 5695 5696 5697 5697 5697 5697 5698 5698 5698 5698 5698 5698 5697 5697 5696 5696 5696 5696 5696 5696 5696 5695 5695 5695 5695 5695 5695 5696 5696 5696 5696 5695 5695
5670 5670 5670 5670 5671 5671 5671 5672 5672 5672 5672 5672 5672 5672 5672 5673 5673 5673 5672 5672 5672 5673 5673 5674 5674 5674 5675 5676 5676 5677 5678 5679 5680 5681 5682 5684 5685 5686 5687 5688 5688 5688 5687 5686 5687 5688 5689 5690 5690 5690 5690 5689 5689 5690 5690 5691 5691 5692 5692 5692 5692 5692 5692 5692 5691 5691 5691 5690 5690 5690 5690 5690 5689 5688 5688 5688 5688 5687 5687 5687 5687 5688 5688 5687 5687
5662 5663 5663 5663 5664 5664 5665 5665 5665 5665 5665 5665 5665 5666 5667 5667 5667 5667 5667 5667 5666 5666 5667 5667 5668 5668 5668 5669 5670 5671 5672 5673 5674 5675 5676 5677 5678 5680 5680 5681 5681 5681 5680 5680 5680 5681 5682 5683 5683 5684 5683 5683 5683 5683 5683 5684 5684 5685 5685 5685 5685 5685 5686 5685 5685 5685 5685 5685 5684 5684 5684 5684 5683 5682 5682 5681 5680 5679 5678 5678 5679 5679 5680 5679 5678
5655 5655 5656 5656 5656 5657 5658 5659 5659 5658 5657 5656 5658 5660 5660 5660 5659 5659 5660 5661 5661 5661 5662 5662 5662 5662 5662 5663 5664 5665 5666 5667 5668 5669 5670 5671 5672 5673 5674 5674 5675 5675 5674 5674 5675 5675 5676 5676 5677 5677 5677 5677 5677 5677 5677 5677 5677 5677 5678 5678 5678 5679 5679 5679 5679 5679 5679 5679 5678 5678 5678 5677 5677 5676 5676 5675 5674 5672 5672 5672 5671 5671 5671 5670 5670
5647 5647 5648 5648 5649 5649 5650 5651 5652 5652 5651 5650 5651 5653 5653 5652 5652 5652 5653 5654 5655 5656 5657 5657 5657 5657 5658 5658 5659 5659 5660 5661 5662 5663 5664 5665 5666 5666 5667 5668 5669 5669 5669 5669 5670 5670 5670 5670 5671 5671 5671 5670 5670 5670 5670 5670 5670 5671 5671 5671 5671 5672 5672 5672 5672 5672 5672 5672 5672 5672 5671 5671 5671 5670 5670 5669 5668 5666 5666 5665 5664 5664 5663 5663 5662
5639 5639 5639 5640 5640 5641 5641 5642 5642 5643 5644 5644 5645 5646 5645 5645 5645 5645 5646 5648 5649 5650 5651 5651 5651 5651 5652 5652 5653 5654 5654 5655 5656 5657 5658 5658 5659 5660 5661 5662 5663 5663 5664 5665 5665 5665 5665 5665 5665 5665 5665 5665 5664 5664 5664 5664 5664 5664 5664 5664 5665 5665 5665 5665 5666 5666 5666 5666 5665 5665 5665 5665 5665 5664 5663 5662 5661 5660 5659 5658 5657 5657 5656 5655 5655
5631 5631 5631 5631 5632 5632 5633 5633 5633 5634 5636 5637 5638 5638 5638 5637 5638 5638 5639 5641 5643 5644 5644 5644 5644 5644 5644 5645 5646 5647 5648 5649 5650 5651 5651 5652 5652 5653 5654 5655 5656 5657 5658 5659 5660 5660 5660 5660 5660 5659 5659 5659 5658 5658 5658 5657 5657 5657 5657 5657 5658 5658 5659 5659 5659 5659 5659 5659 5658 5658 5658 5658 5657 5657 5656 5655 5654 5653 5652 5651 5651 5650 5649 5648 5647
5623 5623 5623 5623 5624 5624 5625 5625 5625 5625 5627 5629 5630 5630 5630 5630 5630 5631 5632 5634 5636 5637 5636 5636 5636 5636 5637 5637 5638 5639 5640 5641 5642 5644 5645 5645 5645 5646 5647 5648 5649 5650 5651 5652 5653 5653 5653 5653 5653 5653 5653 5653 5652 5652 5651 5651 5651 5651 5651 5651 5651 5652 5652 5652 5652 5652 5651 5651 5651 5651 5650 5650 5649 5649 5648 5647 5646 5646 5645 5644 5643 5642 5641 5640 5639
5615 5615 5616 5616 5616 5616 5616 5617 5617 5617 5618 5619 5620 5621 5622 5622 5622 5623 5624 5625 5627 5628 5629 5628 5628 5629 5629 5630 5631 5632 5633 5634 5635 5636 5637 5638 5638 5639 5640 5640 5641 5642 5643 5644 5645 5646 5646 5646 5646 5646 5646 5646 5645 5645 5645 5645 5645 5645 5645 5645 5645 5645 5645 5645 5645 5645 5644 5644 5644 5643 5643 5642 5642 5641 5640 5640 5639 5638 5637 5636 5635 5634 5633 5632 5631
5605 5606 5607 5608 5608 5608 5608 5609 5609 5609 5609 5610 5611 5612 5613 5614 5615 5616 5616 5617 5618 5619 5620 5620 5620 5620 5621 5622 5624 5625 5626 5627 5627 5628 5629 5630 5630 5631 5632 5633 5634 5634 5635 5636 5637 5638 5638 5638 5638 5638 5638 5638 5638 5638 5638 5639 5639 5639 5639 5639 5639 5639 5639 5639 5638 5638 5638 5637 5637 5636 5636 5635 5635 5634 5634 5633 5632 5631 5629 5628 5627 5626 5625 5624 5623
5597 5597 5597 5598 5599 5600 5600 5600 5601 5601 5601 5601 5602 5603 5604 5604 5606 5607 5608 5609 5609 5610 5611 5612 5613 5613 5613 5614 5615 5616 5617 5618 5618 5619 5621 5622 5623 5624 5625 5626 5626 5627 5627 5628 5629 5629 5630 5630 5630 5630 5630 5630 5630 5631 5631 5632 5632 5633 5633 5633 5633 5632 5632 5632 5632 5632 5631 5631 5630 5629 5629 5629 5628 5628 5627 5626 5624 5623 5622 5621 5620 5619 5618 5616 5615
5589 5589 5588 5588 5589 5589 5590 5591 5592 5592 5592 5592 5593 5594 5595 5595 5596 5597 5598 5599 5600 5601 5602 5603 5604 5605 5605 5606 5606 5607 5608 5609 5609 5610 5613 5615 5616 5617 5618 5619 5619 5619 5620 5620 5621 5621 5622 5623 5623 5623 5623 5623 5624 5624 5625 5625 5626 5626 5626 5626 5626 5626 5626 5626 5626 5625 5625 5624 5624 5623 5623 5623 5622 5621 5620 5619 5618 5617 5616 5615 5613 5612 5611 5609 5608
5581 5581 5580 5579 5579 5580 5580 5581 5582 5582 5582 5583 5583 5584 5585 5586 5586 5587 5588 5589 5590 5591 5592 5593 5594 5595 5596 5597 5597 5598 5599 5600 5600 5602 5605 5606 5607 5609 5611 5611 5611 5612 5612 5613 5614 5614 5615 5616 5616 5616 5616 5617 5617 5618 5619 5619 5619 5620 5619 5620 5620 5620 5620 5619 5619 5619 5619 5618 5618 5618 5618 5617 5616 5615 5614 5613 5612 5611 5610 5609 5607 5606 5604 5603 5601
5572 5572 5571 5571 5571 5571 5571 5572 5573 5572 5571 5571 5572 5573 5575 5576 5577 5576 5577 5578 5579 5580 5582 5583 5584 5585 5586 5587 5588 5589 5590 5591 5592 5594 5597 5598 5599 5601 5602 5603 5603 5604 5605 5606 5607 5608 5608 5609 5609 5609 5609 5610 5611 5612 5612 5613 5613 5613 5613 5613 5613 5613 5614 5613 5613 5613 5613 5613 5613 5612 5612 5611 5610 5609 5608 5607 5606 5605 5604 5602 5601 5599 5598 5596 5594
5562 5562 5561 5561 5562 5562 5562 5563 5564 5563 5561 5560 5561 5562 5563 5565 5566 5566 5566 5567 5568 5570 5571 5572 5574 5575 5576 5578 5579 5581 5582 5582 5583 5585 5587 5589 5591 5592 5593 5594 5595 5596 5598 5599 5600 5601 5602 5603 5602 5602 5603 5605 5605 5605 5605 5606 5606 5606 5606 5607 5607 5607 5608 5608 5608 5608 5608 5608 5607 5607 5606 5605 5604 5604 5603 5602 5600 5599 5597 5596 5594 5593 5591 5589 5588
5552 5551 5551 5551 5552 5552 5553 5553 5554 5554 5552 5551 5552 5552 5553 5554 5554 5555 5555 5556 5558 5559 5560 5562 5563 5564 5565 5567 5569 5571 5573 5574 5575 5577 5579 5580 5581 5582 5583 5584 5586 5587 5589 5591 5593 5594 5595 5596 5596 5596 5598 5599 5598 5598 5599 5599 5600 5600 5600 5600 5601 5601 5602 5603 5603 5602 5602 5602 5601 5601 5600 5600 5599 5598 5597 5596 5594 5593 5591 5590 5588 5587 5585 5583 5582
5542 5541 5541 5541 5541 5541 5542 5543 5544 5543 5542 5541 5543 5543 5543 5543 5544 5544 5544 5544 5546 5548 5550 5551 5553 5554 5555 5557 5558 5560 5562 5563 5566 5569 5571 5572 5573 5573 5574 5576 5577 5579 5581 5583 5586 5587 5588 5589 5589 5590 5592 5592 5592 5592 5593 5594 5594 5595 5595 5595 5595 5596 5597 5597 5597 5597 5596 5596 5596 5596 5595 5595 5594 5593 5592 5590 5589 5587 5585 5584 5582 5581 5579 5577 5575
5532 5531 5530 5529 5529 5529 5530 5531 5532 5532 5531 5532 5533 5534 5534 5534 5534 5533 5533 5533 5535 5537 5539 5541 5543 5544 5546 5548 5549 5550 5552 5553 5555 5558 5561 5564 5566 5566 5567 5568 5569 5571 5573 5576 5578 5580 5580 5581 5582 5584 5586 5587 5587 5587 5587 5588 5589 5590 5590 5590 5590 5591 5591 5591 5592 5591 5591 5591 5591 5591 5590 5589 5588 5587 5586 5585 5583 5582 5580 5579 5577 5575 5573 5572 5569
5521 5520 5519 5519 5518 5517 5518 5520 5520 5520 5520 5521 5522 5524 5524 5523 5523 5523 5523 5523 5524 5526 5528 5531 5532 5534 5536 5538 5539 5541 5542 5544 5546 5549 5551 5554 5557 5559 5560 5561 5562 5564 5566 5568 5570 5572 5573 5574 5576 5578 5579 5581 5581 5581 5582 5582 5583 5584 5585 5585 5585 5585 5586 5586 5586 5586 5586 5586 5586 5586 5585 5584 5583 5582 5581 5580 5578 5577 5576 5574 5572 5570 5568 5566 5564